COSMOS 2315

Satellite information

Favourite Embed

Satellite Type and Status

PAYLOADIN ORBIT

Key statistics

Satellite COSMOS 2315 at a glance.

Uptime

10962

Days in orbit

Revolutions

≈ 13.7

Per day

Orbit

LEO

Low Earth Orbit

Inclination

82.9

Latest

Satellite identification and parameters

Extended collection of information and parameters for COSMOS 2315.

Object identification

Identified? True

Debris? False

Object name: COSMOS 2315

International designator: 1995-032A

Object number (NORAD): 23603

Object ID (CCSDS): 23603

Country: COMMONWEALTH OF INDEPENDENT STATES (CIS)

Current information (Y/N): Y

RCS size: LARGE

Orbital parameters

Period: 104.876 minutes

Inclination: 82.9051 deg

SMA: 7366.759 km

Apoapsis: 1012.466 km

Periapsis: 964.782 km

RAAN: 146.5514 deg

Eccentricy: 0.0032364

Argument of periapsis: 90.9056 deg

Mean anomaly: 325.565 deg

Mean motion: 13.73055436 rev/day

Mean motion (dot): 0.00000024 rev/day2

B* drag term: 0.0000094583 1/REarth

Two-line elements (TLE)

Creation date: July 9, 2025, 2:22 a.m.

Reference frame: TEME

Reference center: EARTH

Epoch: July 8, 2025, 8:57 p.m. UTC

TLE line 0: 0 COSMOS 2315

TLE line 1: 1 23603U 95032A 25189.87336083 .00000024 00000-0 94583-5 0 9996

TLE line 2: 2 23603 82.9051 146.5514 0032364 90.9056 325.5650 13.73055436503588

Live tracking on map

Real-time ground track for satellite COSMOS 2315.

In-orbit conjunctions

There are no conjunctions computed for COSMOS 2315, at the moment. Check back to stay up to date, as we update our databases every day.

Go to all conjunctions

Associated space launch

Civilian navigation satellite equivalent to the purely military Parus

COSMOS 2315 was lifted into orbit during the mission ‘Kosmos-3M | Tsikada 21’, on board a Kosmos-3M space rocket.

The launch took place on July 5, 1995, 3:09 a.m. from 132/1 (132L).

For more information about the launch, click the button.

Launch to space Kosmos-3M | Tsikada 21
Kosmos-3M | Tsikada 21

Agency: N/A

Status: Launch Successful

Launch date: July 5, 1995, 3:09 a.m. UTC

Rocket: Kosmos-3M

Launch pad: 132/1 (132L)

Location: Plesetsk Cosmodrome, Russian Federation

...

Latest news about this satellite

There are no fresh news available about this satellite. Check back as we update our databases every day.


Newsletter sign-up

Weekly statistics, charts and insights to help you stay on top of the space industry.